User: anonymous   Login
Location: Caltech
(34.1382°N, 118.1253°W)
Time: 05:39:06
(UTC-07:00)
Language:

OAO 2 Rocket - Orbit

View from above orbital plane
View from above orbital plane
View from above satellite
View from above satellite

Ground track
Ground track

The orbit data is extracted from the following two-line orbital elements,

1  3598U 68110B   17144.93822591 +.00000061 +00000-0 +19038-4 0  9999
2  3598 034.9931 108.4978 0048899 038.8015 321.6174 14.54308475542181
Epoch (UTC): 24 May 2017 22:31:02
Eccentricity: 0.0048899
inclination: 34.9931°
perigee height: 677 km
apogee height: 746 km
right ascension of ascending node: 108.4978°
argument of perigee: 38.8015°
revolutions per day: 14.54308475
mean anomaly at epoch: 321.6174°
orbit number at epoch: 54218

The dashed part of the orbit path shows where the satellite is in the earth's shadow,  

DLR